• In United Kingdom
  • List of Countries
  • For 7 days
  • Water Temperature
  • Satellite Maps
  • Weather Map
  • Weather Widgets
  • user-avatar
    Login

    Hourly Weather Bogorodchany

    Today, 21 May, Monday

    Time Temperature Precipitation Wind Pressure Humidity
    00:00 +13°C° 0 mm 1 mps 737 mmHg 94%
    01:00 +12°C° 0 mm 1 mps 736 mmHg 97%
    02:00 +12°C° 0 mm 1 mps 737 mmHg 98%
    03:00 +12°C° 0 mm 1 mps 737 mmHg 98%
    04:00 +11°C° 0 mm 1 mps 737 mmHg 99%
    05:00 +10°C° 0 mm 2 mps 737 mmHg 99%
    06:00 +11°C° 0 mm 1 mps 737 mmHg 100%
    07:00 +11°C° 0 mm 0 mps 737 mmHg 98%
    08:00 +13°C° 0 mm 1 mps 737 mmHg 97%
    09:00 +14°C° 0 mm 1 mps 737 mmHg 95%
    10:00 +15°C° 0 mm 2 mps 738 mmHg 92%
    11:00 +16°C° 0 mm 2 mps 737 mmHg 87%
    12:00 +17°C° 0.2 mm 4 mps 737 mmHg 85%
    13:00 +17°C° 0.6 mm 4 mps 737 mmHg 85%
    14:00 +17°C° 0.1 mm 3 mps 737 mmHg 85%
    15:00 +17°C° 0.1 mm 3 mps 736 mmHg 81%
    16:00 +17°C° 0 mm 4 mps 736 mmHg 79%
    17:00 +17°C° 0 mm 4 mps 736 mmHg 77%
    18:00 +17°C° 0 mm 3 mps 735 mmHg 79%
    19:00 +17°C° 0 mm 3 mps 735 mmHg 85%
    20:00 +15°C° 0 mm 2 mps 735 mmHg 93%
    21:00 +15°C° 0 mm 2 mps 735 mmHg 94%
    22:00 +14°C° 0 mm 1 mps 735 mmHg 97%
    23:00 +13°C° 0 mm 1 mps 734 mmHg 100%

    Tomorrow, 22 May, Tuesday

    Time Temperature Precipitation Wind Pressure Humidity
    00:00 +12°C° 0 mm 1 mps 734 mmHg 100%
    01:00 +12°C° 0 mm 1 mps 734 mmHg 100%
    02:00 +12°C° 0 mm 1 mps 734 mmHg 100%
    03:00 +11°C° 0 mm 1 mps 734 mmHg 100%
    04:00 +11°C° 0 mm 1 mps 733 mmHg 100%
    05:00 +12°C° 0 mm 1 mps 733 mmHg 100%
    06:00 +12°C° 0 mm 1 mps 733 mmHg 100%
    07:00 +13°C° 0 mm 1 mps 734 mmHg 99%
    08:00 +15°C° 0 mm 2 mps 734 mmHg 98%
    09:00 +16°C° 0 mm 3 mps 734 mmHg 94%
    10:00 +16°C° 0 mm 3 mps 734 mmHg 95%
    11:00 +19°C° 0 mm 4 mps 734 mmHg 92%
    12:00 +21°C° 0 mm 5 mps 734 mmHg 91%
    13:00 +18°C° 2.8 mm 3 mps 734 mmHg 88%
    14:00 +17°C° 0 mm 6 mps 734 mmHg 96%
    15:00 +19°C° 0 mm 5 mps 733 mmHg 93%
    16:00 +20°C° 0 mm 5 mps 733 mmHg 95%
    17:00 +21°C° 0 mm 6 mps 732 mmHg 91%
    18:00 +20°C° 0.1 mm 5 mps 732 mmHg 96%
    19:00 +20°C° 0.4 mm 5 mps 732 mmHg 94%
    20:00 +19°C° 0 mm 4 mps 732 mmHg 95%
    21:00 +18°C° 0 mm 3 mps 733 mmHg 98%
    22:00 +17°C° 0 mm 3 mps 733 mmHg 99%
    23:00 +17°C° 0 mm 2 mps 733 mmHg 100%

    Day after tomorrow, 23 May, Wednesday

    Time Temperature Precipitation Wind Pressure Humidity
    00:00 +17°C° 0 mm 2 mps 733 mmHg 100%
    01:00 +18°C° 0 mm 1 mps 733 mmHg 100%
    02:00 +16°C° 0 mm 1 mps 733 mmHg 99%
    03:00 +16°C° 0 mm 1 mps 733 mmHg 99%
    04:00 +16°C° 0 mm 1 mps 733 mmHg 98%
    05:00 +17°C° 0 mm 2 mps 733 mmHg 94%
    06:00 +16°C° 0 mm 2 mps 733 mmHg 100%
    07:00 +18°C° 0 mm 1 mps 734 mmHg 99%
    08:00 +18°C° 0 mm 2 mps 734 mmHg 96%
    09:00 +20°C° 0 mm 2 mps 735 mmHg 91%
    10:00 +21°C° 0 mm 2 mps 735 mmHg 89%
    11:00 +23°C° 0 mm 2 mps 735 mmHg 89%
    12:00 +23°C° 0.1 mm 2 mps 735 mmHg 88%
    13:00 +21°C° 3.5 mm 2 mps 735 mmHg 93%
    14:00 +22°C° 3.3 mm 1 mps 734 mmHg 86%
    15:00 +24°C° 0 mm 1 mps 734 mmHg 79%
    16:00 +24°C° 0 mm 2 mps 734 mmHg 79%
    17:00 +20°C° 0.8 mm 4 mps 734 mmHg 95%
    18:00 +21°C° 0.2 mm 1 mps 734 mmHg 93%
    19:00 +19°C° 0 mm 0 mps 734 mmHg 95%
    20:00 +19°C° 0 mm 0 mps 734 mmHg 97%
    21:00 +20°C° 0 mm 1 mps 734 mmHg 99%
    22:00 +20°C° 0 mm 1 mps 734 mmHg 99%
    23:00 +19°C° 0 mm 1 mps 734 mmHg 99%

    24 May, Thursday

    Time Temperature Precipitation Wind Pressure Humidity
    00:00 +19°C° 0 mm 1 mps 734 mmHg 100%
    01:00 +18°C° 0 mm 1 mps 734 mmHg 100%
    02:00 +18°C° 0 mm 1 mps 734 mmHg 100%
    03:00 +18°C° 0 mm 1 mps 734 mmHg 100%
    04:00 +18°C° 0 mm 1 mps 734 mmHg 100%
    05:00 +18°C° 0 mm 1 mps 734 mmHg 100%
    06:00 +18°C° 0 mm 1 mps 734 mmHg 100%
    07:00 +18°C° 0 mm 1 mps 734 mmHg 100%
    08:00 +17°C° 0 mm 2 mps 735 mmHg 100%
    09:00 +18°C° 0 mm 1 mps 735 mmHg 100%
    10:00 +18°C° 0 mm 1 mps 735 mmHg 100%
    11:00 +18°C° 0 mm 1 mps 735 mmHg 99%
    12:00 +19°C° 0 mm 1 mps 735 mmHg 98%
    13:00 +19°C° 0 mm 1 mps 735 mmHg 98%
    14:00 +19°C° 0 mm 1 mps 735 mmHg 98%

    25 May, Friday

    Time Temperature Precipitation Wind Pressure Humidity

    26 May, Saturday

    Time Temperature Precipitation Wind Pressure Humidity
    Show more